Location: Unspecified
(47.7670°N, 8.8522°E)
Time: 00:53:35
(UTC+01:00)

ISS - Visible Passes

Search period start: 31 January 2023 00:00
Search period end: 10 February 2023 00:00
Orbit: 413 x 419 km, 51.6° (Epoch: 30 January)

Date Brightness Start Highest point End Pass type
(mag) Time Alt. Az. Time Alt. Az. Time Alt. Az.
31 Jan -2.9 19:19:46 10° WNW 19:23:01 45° SSW 19:23:38 40° S visible
01 Feb -3.5 18:31:00 10° WNW 18:34:22 69° SSW 18:37:26 12° SE visible
01 Feb -0.8 20:08:52 10° WSW 20:10:21 13° SW 20:10:21 13° SW visible
02 Feb -1.4 19:19:27 10° W 19:22:03 21° SW 19:24:19 12° S visible
03 Feb -2.0 18:30:24 10° W 18:33:27 32° SW 18:36:29 10° SSE visible
05 Feb -0.7 18:30:18 10° W 18:32:14 15° SW 18:34:10 10° S visible
